[ ตารางข้อมูล ] [ Min-Max ] [ วันนี้4 ] [ วันนี้2 ] [ เทียบ3วัน A ] [ เทียบ4วัน B ]   

วันนี้2   [ ◀ ช่วงเก่ากว่า ] [ ช่วงที่ 200 ] [ ช่วงใหม่กว่า ▶ ] [ ล่าสุด ]    [ 3 ชั่วโมง ] [ 6 ชั่วโมง ] [ 12 ชั่วโมง ] [ 24 ชั่วโมง ]   วันนี้2

อุณภูมิตู้ Knockdown4529  ราย 3 ชั่วโมง  ที่วัดได้ ในช่วงวันเวลา 09/04/2026 (21:51) ถึง 10/04/2026 (00:51) 
ความชื้นในตู้ Knockdown4529  ราย 3 ชั่วโมง  ที่วัดได้ ในช่วงวันเวลา 09/04/2026 (21:51) ถึง 10/04/2026 (00:51) 

 
DS18B20SHTC3 
IDDate d/m/Y & Timedata1
สูง
data2
ต่ำ
data3
นอก
temp
pcb
hum
pcb
Time
 10396  10/04/2026 00:48:07  27.4  27.5  25.5  27.5  70.8  00:48 
 10395  10/04/2026 00:43:25  27.4  27.6  25.5  27.3  70.7  00:43 
 10394  10/04/2026 00:38:44  27.5  27.6  25.6  27.1  70.7  00:38 
 10393  10/04/2026 00:34:02  27.5  27.6  25.6  27.5  70.8  00:34 
 10392  10/04/2026 00:29:18  27.5  27.6  25.7  27.5  70.8  00:29 
 10391  10/04/2026 00:24:36  27.6  27.6  25.7  27.5  70.7  00:24 
 10390  10/04/2026 00:19:54  27.6  27.6  25.7  27.4  70.7  00:19 
 10389  10/04/2026 00:15:13  27.6  27.6  25.9  27.4  70.7  00:15 
 10388  10/04/2026 00:10:30  27.6  27.6  25.9  27.4  70.8  00:10 
 10387  10/04/2026 00:05:48  27.6  27.7  25.9  27.6  70.8  00:05 
 10386  10/04/2026 00:01:07  27.6  27.7  25.8  27.6  70.7  00:01 
 10385  09/04/2026 23:56:25  27.6  27.8  25.9  27.6  70.8  23:56 
 10384  09/04/2026 23:51:43  27.6  27.8  26.0  27.6  70.8  23:51 
 10383  09/04/2026 23:47:01  27.7  27.8  25.8  27.6  70.8  23:47 
 10382  09/04/2026 23:42:19  27.7  27.8  25.8  27.5  70.8  23:42 
 10381  09/04/2026 23:37:37  27.7  27.8  25.8  27.6  70.8  23:37 
 10380  09/04/2026 23:32:55  27.8  27.8  25.9  27.6  70.9  23:32 
 10379  09/04/2026 23:28:13  27.8  27.8  25.9  27.6  70.8  23:28 
 10378  09/04/2026 23:23:31  27.8  27.9  25.9  27.7  70.9  23:23 
 10377  09/04/2026 23:18:49  27.8  27.9  26.0  27.5  70.7  23:18 
 10376  09/04/2026 23:14:07  27.8  27.9  26.0  27.7  70.8  23:14 
 10375  09/04/2026 23:09:24  27.8  27.9  26.0  27.6  70.9  23:09 
 10374  09/04/2026 23:04:43  27.9  27.9  26.0  27.6  70.9  23:04 
 10373  09/04/2026 22:59:59  27.9  27.9  26.0  27.9  70.8  22:59 

Data every 5 minute.


ใช้เวลาประมวลผล 0.00188 วินาที